| time (UTC) | temp F | wind direction | speed MPH | gust MPH | rain 1hr in | rain 24hr in | rain mn in | humidity % | barometer mb |
| 20260901010003 | 57 | 194 | 1.0 | 2.0 | 0.00 | 0.06 | 0.00 | 99 | 1007.5 |
| 20260901005714 | 57 | 191 | 1.0 | 2.0 | 0.00 | 0.06 | 0.00 | 99 | 1007.5 |
| 20260901005003 | 57 | 214 | 1.0 | 3.0 | 0.00 | 0.06 | 0.00 | 99 | 1007.5 |
| 20260901004714 | 57 | 216 | 1.0 | 3.0 | 0.00 | 0.06 | 0.00 | 99 | 1007.4 |
| 20260901004003 | 57 | 193 | 2.0 | 3.0 | 0.00 | 0.06 | 0.00 | 99 | 1007.5 |
| 20260901003714 | 57 | 191 | 2.0 | 3.0 | 0.00 | 0.06 | 0.00 | 99 | 1007.6 |
| 20260901003213 | 57 | 192 | 2.0 | 4.0 | 0.00 | 0.06 | 0.00 | 99 | 1007.5 |
| 20260901002714 | 57 | 183 | 2.0 | 4.0 | 0.00 | 0.06 | 0.00 | 99 | 1007.5 |
| 20260901002003 | 57 | 174 | 2.0 | 4.0 | 0.00 | 0.06 | 0.00 | 99 | 1007.5 |
| 20260901001503 | 57 | 185 | 1.0 | 4.0 | 0.00 | 0.06 | 0.00 | 99 | 1007.5 |
| 20260901001213 | 57 | 189 | 1.0 | 3.0 | 0.00 | 0.06 | 0.00 | 99 | 1007.4 |
| 20260901000714 | 57 | 194 | 1.0 | 3.0 | 0.00 | 0.06 | 0.00 | 99 | 1007.4 |
| 20260901000004 | 57 | 193 | 1.0 | 4.0 | 0.00 | 0.06 | 0.00 | 99 | 1007.5 |
| 20260831235503 | 57 | 182 | 1.0 | 4.0 | 0.00 | 0.06 | 0.00 | 99 | 1007.6 |
| 20260831235003 | 57 | 190 | 1.0 | 2.0 | 0.00 | 0.06 | 0.00 | 99 | 1007.5 |
| 20260831234714 | 57 | 202 | 1.0 | 2.0 | 0.00 | 0.06 | 0.00 | 99 | 1007.5 |
| 20260831234003 | 57 | 198 | 1.0 | 3.0 | 0.00 | 0.06 | 0.00 | 99 | 1007.4 |
| 20260831233504 | 57 | 191 | 2.0 | 3.0 | 0.00 | 0.06 | 0.00 | 99 | 1007.6 |
| 20260831233003 | 57 | 197 | 2.0 | 3.0 | 0.00 | 0.06 | 0.00 | 99 | 1007.6 |
| 20260831232503 | 57 | 196 | 2.0 | 4.0 | 0.00 | 0.06 | 0.00 | 99 | 1007.6 |
| 20260831232213 | 57 | 187 | 2.0 | 4.0 | 0.00 | 0.06 | 0.00 | 99 | 1007.7 |
| 20260831231503 | 57 | 187 | 2.0 | 4.0 | 0.00 | 0.06 | 0.00 | 99 | 1007.7 |
| 20260831231003 | 57 | 186 | 2.0 | 4.0 | 0.00 | 0.06 | 0.00 | 99 | 1007.7 |
| 20260831230714 | 57 | 187 | 1.0 | 3.0 | 0.00 | 0.06 | 0.00 | 99 | 1007.6 |
| 20260831230003 | 57 | 195 | 1.0 | 4.0 | 0.00 | 0.06 | 0.00 | 99 | 1007.7 |
| 20260831225503 | 57 | 182 | 2.0 | 4.0 | 0.00 | 0.06 | 0.00 | 99 | 1007.7 |
| 20260831225003 | 57 | 177 | 2.0 | 4.0 | 0.00 | 0.06 | 0.00 | 99 | 1007.6 |
| 20260831224503 | 57 | 180 | 2.0 | 4.0 | 0.00 | 0.06 | 0.00 | 99 | 1007.7 |
| 20260831224003 | 57 | 189 | 3.0 | 6.0 | 0.00 | 0.06 | 0.00 | 99 | 1007.6 |
| 20260831223504 | 57 | 193 | 3.0 | 6.0 | 0.00 | 0.06 | 0.00 | 99 | 1007.7 |
| 20260831223003 | 57 | 181 | 3.0 | 7.0 | 0.00 | 0.06 | 0.00 | 99 | 1007.8 |
| 20260831222713 | 57 | 179 | 3.0 | 7.0 | 0.00 | 0.06 | 0.00 | 99 | 1007.8 |
| 20260831222003 | 57 | 176 | 2.0 | 4.0 | 0.00 | 0.06 | 0.00 | 99 | 1007.6 |
| 20260831221713 | 57 | 174 | 2.0 | 4.0 | 0.00 | 0.06 | 0.00 | 99 | 1007.7 |
| 20260831221003 | 57 | 173 | 2.0 | 3.0 | 0.00 | 0.06 | 0.00 | 99 | 1007.8 |
| 20260831220713 | 57 | 179 | 2.0 | 4.0 | 0.00 | 0.06 | 0.00 | 99 | 1007.7 |
| 20260831220214 | 57 | 183 | 2.0 | 4.0 | 0.00 | 0.06 | 0.00 | 99 | 1007.6 |
| 20260831215713 | 56 | 187 | 2.0 | 4.0 | 0.00 | 0.06 | 0.06 | 99 | 1007.8 |
| 20260831215003 | 56 | 168 | 2.0 | 4.0 | 0.00 | 0.06 | 0.06 | 99 | 1007.8 |
| 20260831214214 | 56 | 166 | 1.0 | 4.0 | 0.00 | 0.06 | 0.06 | 99 | 1007.6 |
| 20260831213503 | 56 | 172 | 1.0 | 3.0 | 0.00 | 0.06 | 0.06 | 98 | 1007.6 |
| 20260831213004 | 56 | 159 | 0.0 | 1.0 | 0.00 | 0.06 | 0.06 | 98 | 1007.5 |
| 20260831212503 | 56 | 142 | 0.0 | 2.0 | 0.00 | 0.06 | 0.06 | 98 | 1007.5 |
| 20260831212004 | 56 | 126 | 0.0 | 2.0 | 0.00 | 0.06 | 0.06 | 98 | 1007.2 |
| 20260831211713 | 56 | 116 | 0.0 | 2.0 | 0.00 | 0.06 | 0.06 | 98 | 1007.6 |
| 20260831211003 | 56 | 127 | 0.0 | 3.0 | 0.00 | 0.06 | 0.06 | 98 | 1007.3 |
| 20260831210713 | 56 | 136 | 1.0 | 3.0 | 0.00 | 0.06 | 0.06 | 98 | 1007.3 |
| 20260831210214 | 56 | 141 | 1.0 | 3.0 | 0.00 | 0.06 | 0.06 | 98 | 1007.2 |
| 20260831205503 | 56 | 147 | 0.0 | 4.0 | 0.00 | 0.06 | 0.06 | 98 | 1007.2 |
| 20260831205214 | 56 | 141 | 1.0 | 4.0 | 0.00 | 0.06 | 0.06 | 98 | 1007.3 |
| 20260831204503 | 56 | 167 | 2.0 | 4.0 | 0.00 | 0.06 | 0.06 | 98 | 1007.4 |
| 20260831204004 | 56 | 173 | 1.0 | 3.0 | 0.00 | 0.06 | 0.06 | 98 | 1007.4 |
| 20260831203503 | 56 | 160 | 1.0 | 3.0 | 0.00 | 0.06 | 0.06 | 98 | 1007.4 |
| 20260831203214 | 56 | 149 | 1.0 | 3.0 | 0.00 | 0.06 | 0.06 | 98 | 1007.6 |
| 20260831202503 | 56 | 159 | 1.0 | 3.0 | 0.00 | 0.06 | 0.06 | 97 | 1007.4 |
| 20260831202003 | 56 | 161 | 1.0 | 3.0 | 0.00 | 0.06 | 0.06 | 97 | 1007.2 |
| 20260831201503 | 56 | 170 | 1.0 | 4.0 | 0.00 | 0.06 | 0.06 | 97 | 1007.3 |
| 20260831201003 | 56 | 162 | 1.0 | 4.0 | 0.00 | 0.06 | 0.06 | 97 | 1007.3 |
| 20260831200504 | 56 | 151 | 1.0 | 4.0 | 0.00 | 0.06 | 0.06 | 97 | 1007.4 |
| 20260831200003 | 56 | 160 | 1.0 | 4.0 | 0.00 | 0.06 | 0.06 | 97 | 1007.3 |
| 20260831195714 | 56 | 154 | 1.0 | 5.0 | 0.00 | 0.06 | 0.06 | 97 | 1007.3 |
| 20260831195213 | 56 | 143 | 1.0 | 5.0 | 0.00 | 0.06 | 0.06 | 97 | 1007.2 |
| 20260831194504 | 56 | 169 | 1.0 | 5.0 | 0.02 | 0.06 | 0.06 | 97 | 1007.3 |
| 20260831194003 | 56 | 180 | 2.0 | 5.0 | 0.03 | 0.06 | 0.06 | 96 | 1007.3 |
| 20260831193714 | 56 | 183 | 2.0 | 5.0 | 0.03 | 0.06 | 0.06 | 96 | 1007.4 |
| 20260831193003 | 56 | 167 | 3.0 | 5.0 | 0.03 | 0.06 | 0.06 | 96 | 1007.3 |
| 20260831192504 | 56 | 155 | 2.0 | 4.0 | 0.04 | 0.06 | 0.06 | 96 | 1007.3 |
| 20260831192003 | 56 | 168 | 2.0 | 5.0 | 0.04 | 0.06 | 0.06 | 96 | 1007.1 |
| 20260831191503 | 57 | 175 | 2.0 | 5.0 | 0.05 | 0.06 | 0.06 | 95 | 1007.1 |
| 20260831191003 | 57 | 184 | 2.0 | 4.0 | 0.05 | 0.06 | 0.06 | 95 | 1007.3 |
| 20260831190503 | 57 | 145 | 1.0 | 5.0 | 0.06 | 0.06 | 0.06 | 95 | 1007.3 |
| 20260831190213 | 57 | 156 | 2.0 | 5.0 | 0.06 | 0.06 | 0.06 | 95 | 1007.2 |
| 20260831185503 | 57 | 190 | 2.0 | 6.0 | 0.06 | 0.06 | 0.06 | 96 | 1007.2 |
| 20260831185003 | 58 | 194 | 2.0 | 6.0 | 0.06 | 0.06 | 0.06 | 96 | 1007.2 |
| 20260831184503 | 58 | 193 | 3.0 | 5.0 | 0.04 | 0.04 | 0.04 | 97 | 1007.3 |
| 20260831184213 | 59 | 187 | 3.0 | 4.0 | 0.04 | 0.04 | 0.04 | 97 | 1007.4 |
| 20260831183504 | 59 | 173 | 2.0 | 4.0 | 0.03 | 0.03 | 0.03 | 96 | 1007.3 |
| 20260831183003 | 59 | 193 | 2.0 | 8.0 | 0.02 | 0.02 | 0.02 | 96 | 1007.2 |
| 20260831182504 | 59 | 181 | 3.0 | 8.0 | 0.02 | 0.02 | 0.02 | 96 | 1007.3 |
| 20260831182003 | 59 | 173 | 3.0 | 8.0 | 0.02 | 0.02 | 0.02 | 95 | 1007.3 |
| 20260831181503 | 59 | 177 | 3.0 | 6.0 | 0.00 | 0.01 | 0.00 | 95 | 1007.3 |
| 20260831181003 | 60 | 177 | 2.0 | 6.0 | 0.00 | 0.01 | 0.00 | 95 | 1007.2 |
| 20260831180503 | 60 | 151 | 2.0 | 4.0 | 0.00 | 0.00 | 0.00 | 95 | 1007.0 |
| 20260831180003 | 60 | 134 | 1.0 | 4.0 | 0.00 | 0.00 | 0.00 | 94 | 1007.1 |
| 20260831175503 | 60 | 133 | 1.0 | 3.0 | 0.00 | 0.00 | 0.00 | 94 | 1007.1 |
| 20260831175003 | 60 | 90 | 1.0 | 4.0 | 0.00 | 0.00 | 0.00 | 94 | 1007.0 |
| 20260831174503 | 60 | 96 | 1.0 | 4.0 | 0.00 | 0.00 | 0.00 | 94 | 1006.8 |
| 20260831174003 | 60 | 90 | 1.0 | 3.0 | 0.00 | 0.00 | 0.00 | 94 | 1007.1 |
| 20260831173713 | 60 | 92 | 1.0 | 4.0 | 0.00 | 0.00 | 0.00 | 94 | 1007.1 |
| 20260831173003 | 60 | 101 | 2.0 | 4.0 | 0.00 | 0.00 | 0.00 | 93 | 1007.0 |
| 20260831172713 | 60 | 104 | 2.0 | 4.0 | 0.00 | 0.00 | 0.00 | 93 | 1007.0 |
| 20260831172003 | 60 | 104 | 2.0 | 4.0 | 0.00 | 0.00 | 0.00 | 93 | 1007.0 |
| 20260831171504 | 60 | 95 | 2.0 | 4.0 | 0.00 | 0.01 | 0.00 | 92 | 1007.1 |
| 20260831171003 | 60 | 102 | 2.0 | 4.0 | 0.00 | 0.01 | 0.00 | 92 | 1007.0 |
| 20260831170504 | 60 | 110 | 2.0 | 4.0 | 0.00 | 0.01 | 0.00 | 92 | 1007.0 |
| 20260831170214 | 60 | 118 | 1.0 | 4.0 | 0.00 | 0.01 | 0.00 | 91 | 1006.9 |
| 20260831165503 | 60 | 144 | 1.0 | 3.0 | 0.00 | 0.01 | 0.00 | 91 | 1007.0 |
| 20260831165214 | 60 | 136 | 1.0 | 3.0 | 0.00 | 0.01 | 0.00 | 91 | 1006.8 |
| 20260831164713 | 61 | 137 | 1.0 | 2.0 | 0.00 | 0.02 | 0.00 | 90 | 1006.9 |
| 20260831164003 | 61 | 99 | 0.0 | 3.0 | 0.00 | 0.02 | 0.00 | 90 | 1006.8 |
| 20260831163503 | 61 | 130 | 1.0 | 3.0 | 0.00 | 0.02 | 0.00 | 89 | 1006.7 |
| 20260831163003 | 61 | 142 | 1.0 | 3.0 | 0.00 | 0.02 | 0.00 | 88 | 1006.9 |
| 20260831162713 | 61 | 123 | 1.0 | 3.0 | 0.00 | 0.02 | 0.00 | 88 | 1006.9 |
| 20260831162214 | 61 | 113 | 2.0 | 4.0 | 0.00 | 0.02 | 0.00 | 87 | 1007.0 |
| 20260831161504 | 61 | 154 | 2.0 | 6.0 | 0.00 | 0.02 | 0.00 | 85 | 1007.1 |
| 20260831161214 | 62 | 169 | 2.0 | 6.0 | 0.00 | 0.02 | 0.00 | 85 | 1007.0 |
| 20260831160713 | 62 | 163 | 2.0 | 6.0 | 0.00 | 0.02 | 0.00 | 84 | 1006.9 |
| 20260831160214 | 62 | 178 | 2.0 | 5.0 | 0.00 | 0.02 | 0.00 | 84 | 1006.8 |
| 20260831155503 | 62 | 196 | 3.0 | 7.0 | 0.00 | 0.02 | 0.00 | 83 | 1007.0 |
| 20260831155214 | 62 | 192 | 3.0 | 7.0 | 0.00 | 0.02 | 0.00 | 83 | 1007.0 |
| 20260831154504 | 62 | 172 | 3.0 | 5.0 | 0.00 | 0.02 | 0.00 | 82 | 1006.9 |
| 20260831154003 | 62 | 153 | 2.0 | 5.0 | 0.00 | 0.02 | 0.00 | 83 | 1007.0 |
| 20260831153503 | 62 | 165 | 3.0 | 6.0 | 0.00 | 0.02 | 0.00 | 83 | 1007.0 |
| 20260831153003 | 62 | 164 | 4.0 | 8.0 | 0.00 | 0.02 | 0.00 | 82 | 1007.0 |
| 20260831152713 | 62 | 161 | 3.0 | 8.0 | 0.00 | 0.02 | 0.00 | 82 | 1007.1 |
| 20260831152003 | 62 | 157 | 3.0 | 8.0 | 0.00 | 0.03 | 0.00 | 82 | 1007.2 |
| 20260831151504 | 62 | 154 | 3.0 | 8.0 | 0.00 | 0.03 | 0.00 | 82 | 1007.2 |
| 20260831151003 | 62 | 125 | 2.0 | 7.0 | 0.00 | 0.03 | 0.00 | 81 | 1007.2 |
| 20260831150712 | 62 | 160 | 3.0 | 7.0 | 0.00 | 0.03 | 0.00 | 84 | 1007.0 |
| 20260831150003 | 61 | 178 | 3.0 | 7.0 | 0.00 | 0.03 | 0.00 | 84 | 1007.3 |
| 20260831145503 | 61 | 176 | 2.0 | 5.0 | 0.00 | 0.03 | 0.00 | 87 | 1007.4 |
| 20260831145213 | 61 | 170 | 2.0 | 5.0 | 0.00 | 0.03 | 0.00 | 86 | 1007.3 |
| 20260831144503 | 61 | 160 | 1.0 | 5.0 | 0.00 | 0.03 | 0.00 | 87 | 1007.5 |
| 20260831144213 | 61 | 182 | 2.0 | 5.0 | 0.00 | 0.03 | 0.00 | 87 | 1007.3 |
| 20260831143504 | 60 | 197 | 4.0 | 7.0 | 0.00 | 0.11 | 0.00 | 88 | 1007.3 |
| 20260831143004 | 60 | 178 | 4.0 | 7.0 | 0.00 | 0.12 | 0.00 | 88 | 1007.5 |
| 20260831142503 | 60 | 175 | 3.0 | 6.0 | 0.00 | 0.12 | 0.00 | 89 | 1007.5 |
| 20260831142003 | 60 | 183 | 3.0 | 6.0 | 0.00 | 0.12 | 0.00 | 89 | 1007.5 |
| 20260831141503 | 60 | 185 | 3.0 | 5.0 | 0.00 | 0.12 | 0.00 | 89 | 1007.6 |
| 20260831141003 | 60 | 194 | 3.0 | 6.0 | 0.00 | 0.12 | 0.00 | 90 | 1007.4 |
| 20260831140503 | 59 | 183 | 3.0 | 6.0 | 0.00 | 0.12 | 0.00 | 90 | 1007.7 |
| 20260831140003 | 59 | 181 | 3.0 | 6.0 | 0.00 | 0.12 | 0.00 | 90 | 1007.7 |
| 20260831135504 | 59 | 173 | 4.0 | 8.0 | 0.00 | 0.12 | 0.00 | 90 | 1007.7 |
| 20260831135003 | 59 | 182 | 4.0 | 10.0 | 0.00 | 0.12 | 0.00 | 91 | 1007.6 |
| 20260831134503 | 59 | 185 | 5.0 | 13.0 | 0.00 | 0.12 | 0.00 | 91 | 1007.7 |
| 20260831134003 | 59 | 181 | 7.0 | 13.0 | 0.00 | 0.12 | 0.00 | 91 | 1007.8 |
| 20260831133503 | 60 | 177 | 6.0 | 13.0 | 0.00 | 0.13 | 0.00 | 87 | 1007.9 |
| 20260831133213 | 61 | 178 | 6.0 | 13.0 | 0.00 | 0.13 | 0.00 | 84 | 1007.5 |
| 20260831132504 | 62 | 179 | 4.0 | 8.0 | 0.00 | 0.13 | 0.00 | 82 | 1007.7 |
| 20260831132004 | 62 | 180 | 4.0 | 7.0 | 0.00 | 0.13 | 0.00 | 82 | 1007.6 |
| 20260831131503 | 62 | 191 | 4.0 | 7.0 | 0.00 | 0.13 | 0.00 | 82 | 1007.8 |
| 20260831131004 | 62 | 194 | 5.0 | 10.0 | 0.00 | 0.13 | 0.00 | 81 | 1007.6 |
| 20260831130714 | 62 | 199 | 4.0 | 10.0 | 0.00 | 0.13 | 0.00 | 81 | 1007.6 |
| 20260831130003 | 62 | 195 | 3.0 | 9.0 | 0.00 | 0.13 | 0.00 | 80 | 1007.6 |
| 20260831125714 | 63 | 182 | 3.0 | 7.0 | 0.00 | 0.13 | 0.00 | 80 | 1007.7 |
| 20260831125003 | 63 | 170 | 4.0 | 8.0 | 0.00 | 0.13 | 0.00 | 78 | 1007.8 |
| 20260831124504 | 63 | 170 | 3.0 | 8.0 | 0.00 | 0.13 | 0.00 | 78 | 1007.6 |
| 20260831124003 | 64 | 191 | 3.0 | 6.0 | 0.00 | 0.13 | 0.00 | 78 | 1007.6 |
| 20260831123503 | 63 | 185 | 3.0 | 9.0 | 0.00 | 0.13 | 0.00 | 79 | 1007.4 |
| 20260831123003 | 62 | 179 | 3.0 | 9.0 | 0.00 | 0.13 | 0.00 | 81 | 1007.7 |
| 20260831122503 | 62 | 193 | 3.0 | 7.0 | 0.00 | 0.13 | 0.00 | 82 | 1007.8 |
| 20260831122003 | 62 | 190 | 4.0 | 9.0 | 0.00 | 0.13 | 0.00 | 83 | 1007.7 |
| 20260831121503 | 62 | 188 | 4.0 | 9.0 | 0.00 | 0.13 | 0.00 | 83 | 1007.8 |
| 20260831121004 | 62 | 197 | 4.0 | 9.0 | 0.00 | 0.13 | 0.00 | 82 | 1007.9 |
| 20260831120504 | 62 | 186 | 3.0 | 6.0 | 0.00 | 0.13 | 0.00 | 83 | 1007.8 |
| 20260831120003 | 62 | 179 | 3.0 | 7.0 | 0.00 | 0.13 | 0.00 | 83 | 1007.6 |
| 20260831115503 | 62 | 182 | 3.0 | 9.0 | 0.00 | 0.13 | 0.00 | 84 | 1007.6 |
| 20260831115214 | 62 | 181 | 4.0 | 9.0 | 0.00 | 0.13 | 0.00 | 82 | 1007.5 |
| 20260831114503 | 62 | 185 | 5.0 | 9.0 | 0.00 | 0.13 | 0.00 | 81 | 1007.4 |
| 20260831114003 | 62 | 179 | 5.0 | 11.0 | 0.00 | 0.13 | 0.00 | 81 | 1007.5 |
| 20260831113713 | 62 | 173 | 5.0 | 11.0 | 0.00 | 0.13 | 0.00 | 80 | 1007.5 |
| 20260831113214 | 62 | 173 | 4.0 | 11.0 | 0.00 | 0.13 | 0.00 | 80 | 1007.4 |
| 20260831112503 | 62 | 179 | 4.0 | 8.0 | 0.00 | 0.13 | 0.00 | 81 | 1007.6 |
| 20260831112003 | 62 | 178 | 4.0 | 9.0 | 0.00 | 0.13 | 0.00 | 82 | 1007.4 |
| 20260831111503 | 62 | 187 | 4.0 | 9.0 | 0.00 | 0.13 | 0.00 | 81 | 1007.4 |
| 20260831111003 | 62 | 207 | 3.0 | 9.0 | 0.00 | 0.13 | 0.00 | 81 | 1007.8 |
| 20260831110713 | 62 | 216 | 3.0 | 6.0 | 0.00 | 0.13 | 0.00 | 82 | 1007.7 |
| 20260831110004 | 61 | 202 | 3.0 | 6.0 | 0.00 | 0.13 | 0.00 | 84 | 1007.6 |
| 20260831105503 | 61 | 192 | 3.0 | 6.0 | 0.00 | 0.13 | 0.00 | 85 | 1007.8 |
| 20260831105003 | 61 | 176 | 3.0 | 6.0 | 0.00 | 0.13 | 0.00 | 86 | 1007.8 |
| 20260831104503 | 61 | 177 | 3.0 | 6.0 | 0.00 | 0.13 | 0.00 | 86 | 1007.9 |
| 20260831104214 | 61 | 187 | 3.0 | 6.0 | 0.00 | 0.13 | 0.00 | 87 | 1007.8 |
| 20260831103504 | 61 | 203 | 3.0 | 6.0 | 0.00 | 0.13 | 0.00 | 86 | 1007.9 |
| 20260831103214 | 61 | 190 | 3.0 | 6.0 | 0.00 | 0.13 | 0.00 | 86 | 1007.7 |
| 20260831102503 | 61 | 170 | 4.0 | 7.0 | 0.00 | 0.13 | 0.00 | 86 | 1007.7 |
| 20260831102214 | 61 | 182 | 4.0 | 7.0 | 0.00 | 0.13 | 0.00 | 86 | 1007.7 |
| 20260831101503 | 61 | 193 | 3.0 | 7.0 | 0.00 | 0.13 | 0.00 | 85 | 1007.7 |
| 20260831101003 | 61 | 185 | 4.0 | 10.0 | 0.00 | 0.13 | 0.00 | 86 | 1007.9 |
| 20260831100713 | 60 | 179 | 4.0 | 10.0 | 0.00 | 0.13 | 0.00 | 87 | 1007.8 |
| 20260831100003 | 60 | 186 | 4.0 | 8.0 | 0.00 | 0.13 | 0.00 | 87 | 1007.8 |
| 20260831095503 | 60 | 186 | 5.0 | 11.0 | 0.00 | 0.13 | 0.00 | 86 | 1007.7 |
| 20260831095214 | 60 | 184 | 5.0 | 11.0 | 0.00 | 0.13 | 0.00 | 86 | 1007.9 |
| 20260831094503 | 60 | 169 | 4.0 | 12.0 | 0.00 | 0.13 | 0.00 | 87 | 1007.8 |
| 20260831094003 | 60 | 169 | 5.0 | 12.0 | 0.00 | 0.13 | 0.00 | 87 | 1007.9 |
| 20260831093503 | 60 | 186 | 5.0 | 9.0 | 0.00 | 0.13 | 0.00 | 88 | 1007.7 |
| 20260831093003 | 60 | 195 | 4.0 | 9.0 | 0.00 | 0.13 | 0.00 | 90 | 1007.7 |
| 20260831092714 | 59 | 194 | 4.0 | 9.0 | 0.00 | 0.13 | 0.00 | 91 | 1007.6 |
| 20260831092213 | 59 | 194 | 4.0 | 9.0 | 0.00 | 0.13 | 0.00 | 91 | 1007.7 |
| 20260831091503 | 59 | 187 | 4.0 | 8.0 | 0.00 | 0.13 | 0.00 | 92 | 1007.7 |
| 20260831091213 | 59 | 185 | 4.0 | 8.0 | 0.00 | 0.13 | 0.00 | 92 | 1007.7 |
| 20260831090503 | 59 | 201 | 4.0 | 11.0 | 0.00 | 0.13 | 0.00 | 92 | 1007.7 |
| 20260831090003 | 59 | 198 | 4.0 | 11.0 | 0.00 | 0.13 | 0.00 | 91 | 1007.6 |
| 20260831085714 | 59 | 188 | 4.0 | 8.0 | 0.00 | 0.13 | 0.00 | 92 | 1007.6 |
| 20260831085003 | 58 | 194 | 4.0 | 8.0 | 0.00 | 0.13 | 0.00 | 93 | 1007.5 |
| 20260831084504 | 58 | 191 | 4.0 | 8.0 | 0.00 | 0.13 | 0.00 | 93 | 1007.5 |
| 20260831084003 | 58 | 184 | 4.0 | 7.0 | 0.00 | 0.13 | 0.00 | 94 | 1007.6 |
| 20260831083503 | 58 | 195 | 3.0 | 7.0 | 0.00 | 0.13 | 0.00 | 95 | 1007.5 |
| 20260831083003 | 57 | 209 | 3.0 | 6.0 | 0.00 | 0.14 | 0.00 | 95 | 1007.5 |
| 20260831082714 | 58 | 194 | 3.0 | 6.0 | 0.00 | 0.14 | 0.00 | 96 | 1007.6 |
| 20260831082003 | 58 | 175 | 3.0 | 5.0 | 0.00 | 0.14 | 0.00 | 96 | 1007.4 |
| 20260831081504 | 57 | 179 | 3.0 | 6.0 | 0.00 | 0.14 | 0.00 | 96 | 1007.4 |
| 20260831081003 | 57 | 188 | 3.0 | 6.0 | 0.00 | 0.14 | 0.00 | 95 | 1007.5 |
| 20260831080714 | 57 | 187 | 3.0 | 6.0 | 0.00 | 0.14 | 0.00 | 95 | 1007.4 |
| 20260831080004 | 57 | 189 | 3.0 | 6.0 | 0.00 | 0.14 | 0.00 | 95 | 1007.6 |
| 20260831075714 | 57 | 192 | 3.0 | 8.0 | 0.00 | 0.14 | 0.00 | 95 | 1007.6 |
| 20260831075213 | 58 | 189 | 3.0 | 8.0 | 0.00 | 0.14 | 0.00 | 95 | 1007.6 |
| 20260831074714 | 58 | 182 | 4.0 | 8.0 | 0.00 | 0.14 | 0.00 | 94 | 1007.8 |
| 20260831074003 | 58 | 189 | 3.0 | 8.0 | 0.00 | 0.14 | 0.00 | 94 | 1007.7 |
| 20260831073503 | 58 | 205 | 3.0 | 6.0 | 0.00 | 0.14 | 0.00 | 95 | 1007.6 |
| 20260831073003 | 57 | 192 | 3.0 | 8.0 | 0.00 | 0.14 | 0.00 | 95 | 1007.9 |
| 20260831072503 | 57 | 182 | 4.0 | 8.0 | 0.00 | 0.14 | 0.00 | 95 | 1007.7 |
| 20260831072215 | 57 | 188 | 4.0 | 8.0 | 0.00 | 0.14 | 0.00 | 95 | 1007.7 |
| 20260831071503 | 57 | 199 | 3.0 | 7.0 | 0.00 | 0.14 | 0.00 | 95 | 1007.7 |
| 20260831071213 | 57 | 193 | 3.0 | 7.0 | 0.00 | 0.14 | 0.00 | 95 | 1007.7 |
| 20260831070503 | 57 | 179 | 3.0 | 8.0 | 0.00 | 0.14 | 0.00 | 95 | 1007.6 |
| 20260831070003 | 57 | 180 | 3.0 | 8.0 | 0.00 | 0.14 | 0.00 | 95 | 1007.7 |
| 20260831065713 | 57 | 180 | 3.0 | 9.0 | 0.00 | 0.14 | 0.00 | 95 | 1007.7 |
| 20260831065004 | 56 | 184 | 4.0 | 10.0 | 0.00 | 0.14 | 0.00 | 96 | 1007.9 |
| 20260831064503 | 56 | 190 | 5.0 | 10.0 | 0.00 | 0.14 | 0.00 | 95 | 1007.7 |
| 20260831064212 | 56 | 186 | 4.0 | 9.0 | 0.00 | 0.14 | 0.00 | 96 | 1007.8 |
| 20260831063503 | 56 | 196 | 3.0 | 9.0 | 0.00 | 0.14 | 0.00 | 96 | 1007.8 |
| 20260831063004 | 56 | 199 | 3.0 | 8.0 | 0.00 | 0.14 | 0.00 | 96 | 1007.7 |
| 20260831062503 | 56 | 193 | 3.0 | 8.0 | 0.00 | 0.14 | 0.00 | 97 | 1007.7 |
| 20260831062003 | 56 | 187 | 3.0 | 7.0 | 0.00 | 0.14 | 0.00 | 97 | 1007.7 |
| 20260831061504 | 55 | 190 | 3.0 | 7.0 | 0.00 | 0.14 | 0.00 | 97 | 1007.6 |
| 20260831061003 | 55 | 196 | 3.0 | 6.0 | 0.00 | 0.14 | 0.00 | 97 | 1007.7 |
| 20260831060504 | 55 | 186 | 3.0 | 7.0 | 0.00 | 0.14 | 0.00 | 97 | 1007.5 |
| 20260831060214 | 55 | 178 | 3.0 | 7.0 | 0.00 | 0.14 | 0.00 | 98 | 1007.6 |
| 20260831055713 | 55 | 176 | 4.0 | 8.0 | 0.00 | 0.14 | 0.00 | 98 | 1007.4 |
| 20260831055214 | 55 | 180 | 3.0 | 8.0 | 0.00 | 0.14 | 0.00 | 98 | 1007.6 |
| 20260831054503 | 55 | 178 | 3.0 | 6.0 | 0.00 | 0.14 | 0.00 | 98 | 1007.3 |
| 20260831054214 | 55 | 179 | 3.0 | 6.0 | 0.00 | 0.14 | 0.00 | 98 | 1007.5 |
| 20260831053503 | 55 | 181 | 3.0 | 6.0 | 0.00 | 0.14 | 0.00 | 98 | 1007.4 |
| 20260831053003 | 54 | 185 | 3.0 | 6.0 | 0.00 | 0.14 | 0.00 | 98 | 1007.4 |
| 20260831052713 | 54 | 190 | 3.0 | 6.0 | 0.00 | 0.14 | 0.00 | 98 | 1007.5 |
| 20260831052214 | 54 | 192 | 3.0 | 6.0 | 0.00 | 0.14 | 0.00 | 98 | 1007.1 |
| 20260831051504 | 54 | 193 | 3.0 | 6.0 | 0.00 | 0.14 | 0.00 | 98 | 1007.3 |
| 20260831051003 | 54 | 189 | 3.0 | 7.0 | 0.00 | 0.14 | 0.00 | 97 | 1007.3 |
| 20260831050503 | 54 | 191 | 3.0 | 7.0 | 0.00 | 0.14 | 0.00 | 98 | 1007.3 |
| 20260831050214 | 54 | 189 | 3.0 | 7.0 | 0.00 | 0.14 | 0.00 | 97 | 1007.2 |
| 20260831045713 | 54 | 182 | 3.0 | 7.0 | 0.00 | 0.14 | 0.00 | 97 | 1007.3 |
| 20260831045003 | 54 | 203 | 2.0 | 6.0 | 0.00 | 0.14 | 0.00 | 97 | 1007.2 |
| 20260831044503 | 54 | 211 | 2.0 | 6.0 | 0.00 | 0.14 | 0.00 | 97 | 1007.3 |
| 20260831044214 | 54 | 201 | 2.0 | 5.0 | 0.00 | 0.14 | 0.00 | 97 | 1007.2 |
| 20260831043503 | 55 | 199 | 2.0 | 5.0 | 0.00 | 0.14 | 0.00 | 97 | 1007.3 |
| 20260831043003 | 55 | 197 | 3.0 | 5.0 | 0.00 | 0.14 | 0.00 | 96 | 1007.1 |
| 20260831042503 | 55 | 208 | 3.0 | 7.0 | 0.00 | 0.14 | 0.00 | 96 | 1007.1 |
| 20260831042003 | 55 | 200 | 3.0 | 7.0 | 0.00 | 0.14 | 0.00 | 96 | 1007.2 |
| 20260831041713 | 55 | 203 | 3.0 | 7.0 | 0.00 | 0.14 | 0.00 | 96 | 1007.2 |
| 20260831041003 | 55 | 193 | 3.0 | 6.0 | 0.00 | 0.14 | 0.00 | 96 | 1007.0 |
| 20260831040503 | 55 | 194 | 3.0 | 9.0 | 0.00 | 0.14 | 0.00 | 97 | 1007.2 |
| 20260831040213 | 55 | 196 | 3.0 | 9.0 | 0.00 | 0.14 | 0.00 | 97 | 1007.0 |
| 20260831035503 | 55 | 199 | 3.0 | 9.0 | 0.00 | 0.14 | 0.00 | 97 | 1007.0 |
| 20260831035213 | 55 | 203 | 2.0 | 6.0 | 0.00 | 0.14 | 0.00 | 98 | 1007.1 |
| 20260831034503 | 55 | 201 | 3.0 | 7.0 | 0.00 | 0.14 | 0.00 | 98 | 1007.1 |
| 20260831034003 | 55 | 189 | 3.0 | 7.0 | 0.00 | 0.14 | 0.00 | 98 | 1007.1 |
| 20260831033503 | 55 | 179 | 3.0 | 7.0 | 0.00 | 0.14 | 0.00 | 98 | 1007.0 |
| 20260831033003 | 55 | 182 | 3.0 | 7.0 | 0.00 | 0.14 | 0.00 | 98 | 1007.1 |
| 20260831032503 | 55 | 191 | 3.0 | 8.0 | 0.00 | 0.14 | 0.00 | 98 | 1007.1 |
| 20260831032003 | 55 | 195 | 4.0 | 8.0 | 0.00 | 0.14 | 0.00 | 98 | 1006.9 |
| 20260831031503 | 55 | 202 | 3.0 | 7.0 | 0.00 | 0.14 | 0.00 | 98 | 1007.0 |
| 20260831031213 | 55 | 200 | 3.0 | 6.0 | 0.00 | 0.14 | 0.00 | 98 | 1007.1 |
| 20260831030714 | 55 | 191 | 3.0 | 6.0 | 0.00 | 0.14 | 0.00 | 98 | 1007.0 |
| 20260831030213 | 55 | 183 | 3.0 | 6.0 | 0.00 | 0.14 | 0.00 | 98 | 1006.9 |
| 20260831025503 | 55 | 188 | 2.0 | 5.0 | 0.00 | 0.14 | 0.00 | 98 | 1007.0 |
| 20260831025213 | 55 | 190 | 2.0 | 5.0 | 0.00 | 0.14 | 0.00 | 98 | 1007.0 |
| 20260831024503 | 55 | 191 | 3.0 | 6.0 | 0.00 | 0.14 | 0.00 | 98 | 1007.0 |
| 20260831024003 | 55 | 183 | 3.0 | 6.0 | 0.00 | 0.14 | 0.00 | 98 | 1006.9 |
| 20260831023714 | 55 | 186 | 3.0 | 7.0 | 0.00 | 0.14 | 0.00 | 98 | 1007.0 |
| 20260831023004 | 55 | 183 | 3.0 | 7.0 | 0.00 | 0.14 | 0.00 | 98 | 1007.0 |
| 20260831022503 | 55 | 192 | 3.0 | 5.0 | 0.00 | 0.14 | 0.00 | 98 | 1006.8 |
| 20260831022213 | 55 | 195 | 2.0 | 5.0 | 0.00 | 0.14 | 0.00 | 98 | 1007.0 |
| 20260831021503 | 55 | 199 | 2.0 | 6.0 | 0.00 | 0.14 | 0.00 | 98 | 1007.0 |
| 20260831021003 | 56 | 207 | 2.0 | 6.0 | 0.00 | 0.14 | 0.00 | 98 | 1006.9 |
| 20260831020503 | 56 | 208 | 2.0 | 6.0 | 0.00 | 0.14 | 0.00 | 98 | 1007.1 |
| 20260831020213 | 56 | 220 | 2.0 | 4.0 | 0.00 | 0.14 | 0.00 | 98 | 1007.0 |
| 20260831015503 | 55 | 206 | 2.0 | 6.0 | 0.00 | 0.14 | 0.00 | 98 | 1007.0 |
| 20260831015003 | 56 | 199 | 3.0 | 6.0 | 0.00 | 0.14 | 0.00 | 98 | 1007.1 |
| 20260831014504 | 56 | 198 | 3.0 | 6.0 | 0.00 | 0.14 | 0.00 | 98 | 1006.8 |
| 20260831014003 | 56 | 202 | 3.0 | 8.0 | 0.00 | 0.14 | 0.00 | 98 | 1007.0 |
| 20260831013713 | 56 | 202 | 3.0 | 8.0 | 0.00 | 0.14 | 0.00 | 98 | 1007.0 |
| 20260831013003 | 56 | 203 | 3.0 | 8.0 | 0.00 | 0.14 | 0.00 | 98 | 1006.9 |
| 20260831012503 | 56 | 191 | 2.0 | 7.0 | 0.00 | 0.14 | 0.00 | 98 | 1007.0 |
| 20260831012003 | 56 | 187 | 3.0 | 8.0 | 0.00 | 0.14 | 0.00 | 98 | 1006.9 |
| 20260831011503 | 56 | 195 | 3.0 | 8.0 | 0.00 | 0.14 | 0.00 | 98 | 1006.8 |
| 20260831011003 | 56 | 198 | 3.0 | 8.0 | 0.00 | 0.14 | 0.00 | 98 | 1006.8 |
| 20260831010504 | 56 | 206 | 2.0 | 9.0 | 0.00 | 0.14 | 0.00 | 98 | 1007.0 |